Regional Weather Roundup
Issued by NWS Green Bay, WI

Home | Current Version | Previous Version | Graphics & Text | Print | Product List | Glossary Off
Versions: 1 2 3 4 5 6 7 8 9 10 11 12 13 14 15 16 17 18 19 20 21 22 23 24 25 26 27 28 29 30 31 32 33 34 35 36 37 38 39 40 41 42 43 44 45 46 47 48 49 50

000
ASUS43 KGRB 290812
RWRGRB

NORTH-CENTRAL AND NORTHEAST WISCONSIN REGIONAL WEATHER ROUNDUP
NATIONAL WEATHER SERVICE GREEN BAY WI
300 AM CDT FRI MAY 29 2015

WIZ005-009-010>012-018-019-290900-
NORTH CENTRAL WISCONSIN

CITY           SKY/WX    TMP DP  RH WIND       PRES   REMARKS
IRONWOOD       CLOUDY    64  54  68 S7        29.90F
MANITOWISH WTR CLOUDY    62  56  81 S7        29.97F
ARBOR VITAE    CLOUDY    63  55  74 S7        29.98F
EAGLE RIVER    CLOUDY    62  52  71 S3        30.00F
LAND O LAKES   CLOUDY    64  54  70 S7        30.00F
RHINELANDER    CLOUDY    64  53  67 S6        30.01F
PHILLIPS       PTCLDY    64  54  68 S9        29.97S
ANTIGO         CLOUDY    60  55  86 S8        30.03F
TOMAHAWK       CLOUDY    59  54  83 CALM      30.00F
MERRILL        CLOUDY    63  56  79 CALM      30.01F
$$

WIZ013-073-290900-
NORTHEAST WISCONSIN

CITY           SKY/WX    TMP DP  RH WIND       PRES   REMARKS
IRON MOUNTAIN  MOCLDY    60  55  83 SE3       30.01F
MARINETTE      CLOUDY    63  52  67 S6        30.03S
OCONTO         CLOUDY    65  56  72 S6        30.02F
$$

WIZ017-030-035>037-045-290900-
CENTRAL WISCONSIN

CITY           SKY/WX    TMP DP  RH WIND       PRES   REMARKS
MEDFORD        RAIN      62  56  80 S9        30.01R
WAUSAU         CLOUDY    64  55  72 S5        29.99F
MOSINEE        CLOUDY    63  55  77 SE7       30.01F
MARSHFIELD     LGT RAIN  64  56  75 SW3       29.99F
WISC RAPIDS    CLOUDY    66  54  65 SE3       30.01F
STEVENS POINT  CLOUDY    65  54  67 S5        30.01F
WAUPACA        CLOUDY    65  55  71 CALM      30.01F
SHAWANO        CLOUDY    65  54  66 CALM      30.02F
CLINTONVILLE   CLOUDY    64  54  68 S3        30.02F
$$

WIZ038-039-048-051-290900-
FOX VALLEY

CITY           SKY/WX    TMP DP  RH WIND       PRES   REMARKS
NWS GREEN BAY  CLOUDY    67  56  67 S10       30.03F
APPLETON       CLOUDY    66  52  59 SE13      30.03F
OSHKOSH        CLOUDY    65  55  70 S7        30.01F
FOND DU LAC    CLOUDY    67  56  67 S12       30.02F
$$

WIZ022-050-052-290900-
EAST CENTRAL WISCONSIN

CITY           SKY/WX    TMP DP  RH WIND       PRES   REMARKS
STURGEON BAY   CLOUDY    61  52  72 S10       30.07F
MANITOWOC      CLOUDY    60  55  83 S8        30.06F
SHEBOYGAN      CLOUDY    59  53  80 S3        30.05F
$$

LMZ563-521-522-541>543-290900-
LAKESHORE

STATION/POSITION TIME  TEMP    WIND        PRES    VSBY  WAVE
                       AIR SEA DIR/SP/G                  HT/PER
                 (UTC) (F)     (DEG/KT/KT) (MB)    (MI)  (FT/S)
SHEBOYGAN LKSHOR 0800   56     180/  7/  8 1017.9F
KEWAUNEE LKSHORE 0700   52     180/  3/  7 1017.4F
ALGOMA MARINA    0723          210/  4/  5   N/A
NORTHPORT PIER   0700   59     170/  5/  8 1017.9F
N MID LAKE BUOY  0750   45 36  200/  6/  6 1018.3F         1/ 4
SISTER BAY LKSHO 0718   57     160/ 12/ 17   N/A
CHAMBERS ISLAND  0700   60     150/  3/  5 1017.6
MENOMINEE LKSHOR 0700   63     160/  6/  7 1017.8F
$$



USA.gov is the U.S. government's official web portal to all federal, state and local government web resources and services.